[[{"header":{"parameterUnit":"m.s-1","parameterCategory":1,"la1":30.2991,"la2":30.254,"lo1":-89.0895,"lo2":-89.0444,"dy":0.0017,"dx":0.0017,"nx":28,"ny":28,"refTime":"2024-08-14T03:00:00:Z","depth":0,"parameterNumber":2,"parameterNumberName":"U-component_of_WINDS"},"data":[0,0,0,0,0,0,0,0,0,0,0,0,0,0,0,0,0,0,0,0,0,0,0,0,0,0,0,0,0,0,0,0,0,0,0,0,0,0,0,0,0,0,0,0,0,0,0,0,0,0,0,0,0,0,0,0,0,0,0.376,0.3759,0,0.374,0.374,0.3739,0.3713,0.3713,0.3712,0.3712,0.3692,0.3691,0.3691,0,0,0,0,0,0,0,0,0,0,0,0,0,0.3774,0.3774,0.376,0.3759,0.3759,0.374,0.374,0.3739,0.3713,0.3713,0.3712,0.3712,0.3692,0.3691,0.3691,0,0,0,0,0,0,0,0,0,0,0,0,0,0.3762,0.3774,0.376,0.3744,0.3742,0.374,0.374,0.3739,0.3713,0.3713,0.3712,0.3711,0.3692,0.3691,0.3691,0.3703,0,0,0.3691,0.3691,0,0,0,0,0,0,0,0,0.3763,0.3762,0.3746,0.3745,0.3743,0.3728,0.3737,0.3727,0.3713,0.3724,0.3712,0.3711,0.3704,0.3703,0.3701,0.3702,0.3701,0.3691,0.3691,0.369,0.369,0,0,0,0,0,0,0,0.3764,0.3762,0.3752,0.3746,0.3744,0.3737,0.3735,0.3735,0.3718,0.3723,0.3721,0.3719,0.3703,0.3701,0.37,0.3701,0.3691,0.369,0.369,0.369,0.371,0.3711,0,0,0,0,0,0,0.3767,0.3763,0.3752,0.3751,0.3751,0.3738,0.3735,0.3734,0.3718,0.3715,0.372,0.3718,0.3702,0.37,0.3699,0.3711,0.369,0.369,0.369,0.371,0.371,0.3711,0,0,0,0,0,0,0.3767,0.3766,0.3753,0.3757,0.3754,0.3738,0.3737,0.3734,0.3731,0.3716,0.3712,0.3721,0.3701,0.37,0.3702,0.371,0.369,0.369,0.3709,0.371,0.3711,0.3736,0,0,0,0,0,0,0.3768,0.3766,0.3771,0.3757,0.3754,0.3757,0.3737,0.3734,0.3731,0.3729,0.3715,0.3713,0.37,0.3703,0.3702,0.371,0.369,0.3708,0.3709,0.371,0.3734,0.3738,0.3741,0,0,0,0,0,0.3768,0.3779,0.3771,0.377,0.376,0.3757,0.3756,0.3741,0.3732,0.3736,0.3726,0.3713,0.371,0.3703,0.3702,0.371,0.3707,0.3709,0.371,0.3733,0.3737,0.3741,0,0,0,0,0,0,0.3795,0.3777,0.3768,0.3775,0.3768,0.3753,0.3758,0.3746,0.3742,0.374,0.3722,0.3719,0.3724,0.3717,0.371,0.372,0.3707,0.3708,0.3724,0.3728,0.3731,0.3732,0.369,0,0,0,0,0,0.3802,0.3801,0.3786,0.3793,0.379,0.3774,0.3773,0.3762,0.3754,0.3751,0.3741,0.3733,0.373,0.3729,0.3726,0.3734,0.373,0.3738,0.3741,0.3744,0.3745,0.3748,0.3751,0.3716,0.3716,0.3716,0,0,0.3815,0.3805,0.3806,0.3798,0.3791,0.3791,0.3772,0.3773,0.3772,0.3751,0.3753,0.3745,0.3735,0.3741,0.3742,0.3735,0.3754,0.3746,0.3748,0.3748,0.375,0.3753,0.3756,0.3717,0.3717,0.3716,0,0,0.384,0.3833,0.3837,0.3831,0.3821,0.381,0.3812,0.3798,0.3792,0.3793,0.3778,0.3776,0.3772,0.3765,0.3762,0.3783,0.3771,0.3782,0.3798,0.3801,0.3804,0.3806,0.3813,0.3816,0.3784,0.3784,0.3784,0,0.3858,0.3857,0.3841,0.3842,0.3839,0.382,0.3824,0.3819,0.3808,0.3806,0.3798,0.3791,0.3784,0.3786,0.3792,0.3789,0.379,0.3783,0.3805,0.3807,0.3809,0.3815,0.3818,0.3785,0.3785,0.3785,0.3785,0,0.3879,0.3878,0.3883,0.3873,0.387,0.3873,0.3858,0.3857,0.3846,0.3837,0.3838,0.3828,0.3822,0.3822,0.3812,0.3823,0.3818,0.3808,0.3794,0.3814,0.3819,0.3822,0.3787,0.3787,0.3786,0.3786,0,0,0.3919,0.39,0.3902,0.3897,0.3884,0.3883,0.3885,0.3879,0.3878,0.3871,0.3871,0.3868,0.3858,0.3853,0.3842,0.3845,0.3861,0.3834,0.3834,0.3839,0.3871,0.3879,0.3882,0.3853,0.3854,0.3854,0.3872,0,0.394,0.3942,0.3928,0.3934,0.3932,0.3914,0.3916,0.3908,0.3899,0.3896,0.3886,0.3883,0.3871,0.3868,0.387,0.3859,0.3867,0.3858,0.3853,0.3853,0.3855,0.3885,0.3892,0.391,0.3874,0.3874,0.3875,0,0.3965,0.396,0.3965,0.3951,0.395,0.3951,0.3944,0.3942,0.3932,0.3926,0.392,0.3908,0.3908,0.3895,0.3895,0.3888,0.3885,0.388,0.388,0.3878,0.3864,0.3883,0.3915,0.3917,0.3878,0.3878,0.3877,0,0.3993,0.3987,0.3989,0.3985,0.3969,0.397,0.3964,0.3954,0.395,0.3944,0.3941,0.3935,0.3932,0.3927,0.3913,0.3905,0.3914,0.39,0.3907,0.3908,0.3909,0.3909,0.3941,0.3909,0.3909,0.3909,0.3909,0,0.4017,0.4021,0.4001,0.4002,0.4005,0.3989,0.3993,0.3984,0.3975,0.3974,0.3958,0.3958,0.3939,0.3936,0.3925,0.3926,0.3925,0.3919,0.3916,0.392,0.392,0.3917,0.3915,0.391,0.391,0.3909,0.3909,0,0.4049,0.4035,0.4036,0.4021,0.4017,0.402,0.4007,0.4007,0.3997,0.3996,0.3994,0.3979,0.3974,0.396,0.3952,0.3944,0.3948,0.3943,0.3951,0.3949,0.3957,0.3956,0.3987,0.3989,0.3957,0.3958,0.3958,0,0.4065,0.4067,0.4052,0.405,0.4044,0.4042,0.4038,0.4022,0.4019,0.4008,0.4009,0.4004,0.3998,0.3992,0.3979,0.3973,0.3967,0.3978,0.3966,0.3969,0.3966,0.3965,0.3965,0.398,0.3981,0.3981,0.3981,0,0.4094,0.4087,0.4083,0.4076,0.4073,0.4067,0.406,0.4059,0.4041,0.4038,0.4034,0.4029,0.4021,0.4015,0.4007,0.4,0.3987,0.3985,0.3987,0.399,0.3995,0.3991,0.3957,0.3985,0.3984,0.3984,0.3984,0.3984,0.4118,0.4118,0.4108,0.4103,0.4096,0.409,0.4089,0.4079,0.4075,0.4067,0.4058,0.4054,0.4043,0.4031,0.4024,0.4021,0.4014,0.4016,0.4016,0.4017,0.4018,0.3996,0.4019,0.4019,0.4019,0.4019,0.4019,0,0.4146,0.4138,0.4134,0.4124,0.4121,0.411,0.4101,0.4099,0.4096,0.4087,0.4082,0.4076,0.407,0.4057,0.405,0.4049,0.4043,0.4048,0.4047,0.4046,0.4025,0.4024,0.4053,0.4053,0.4053,0.4053,0.4053,0.4053,0.416,0.416,0.4152,0.4149,0.4141,0.4137,0.4133,0.4127,0.4119,0.4114,0.4109,0.41,0.409,0.4081,0.4075,0.4072,0.4069,0.4075,0.407,0.4051,0.4047,0.4044,0.4043,0.4075,0.4075,0.409,0.409,0.4091]},{"header":{"parameterUnit":"m.s-1","parameterCategory":1,"la1":30.2991,"la2":30.254,"lo1":-89.0895,"lo2":-89.0444,"dy":0.0017,"dx":0.0017,"nx":28,"ny":28,"refTime":"2024-08-14T03:00:00:Z","depth":0,"parameterNumber":3,"parameterNumberName":"V-component_of_WINDS"},"data":[0,0,0,0,0,0,0,0,0,0,0,0,0,0,0,0,0,0,0,0,0,0,0,0,0,0,0,0,0,0,0,0,0,0,0,0,0,0,0,0,0,0,0,0,0,0,0,0,0,0,0,0,0,0,0,0,0,0,2.9977,2.9977,0,2.9951,2.9951,2.995,2.9886,2.9885,2.9884,2.9882,2.9856,2.9856,2.9857,0,0,0,0,0,0,0,0,0,0,0,0,0,2.9972,2.9972,2.9977,2.9977,2.9977,2.9951,2.9951,2.995,2.9887,2.9885,2.9883,2.9882,2.9855,2.9856,2.9857,0,0,0,0,0,0,0,0,0,0,0,0,0,2.9963,2.9973,2.9977,2.9942,2.9938,2.9951,2.9951,2.995,2.9887,2.9885,2.9883,2.9881,2.9855,2.9856,2.9857,2.9902,0,0,2.9859,2.986,0,0,0,0,0,0,0,0,2.9963,2.9963,2.9947,2.9944,2.994,2.992,2.9939,2.9934,2.9887,2.9906,2.9882,2.988,2.9879,2.9877,2.9877,2.9901,2.99,2.9859,2.986,2.986,2.986,0,0,0,0,0,0,0,2.9964,2.9964,2.9967,2.9947,2.9943,2.9927,2.9923,2.9938,2.9904,2.9905,2.99,2.9898,2.9876,2.9876,2.9876,2.9899,2.9859,2.986,2.9861,2.9861,2.9957,2.9959,0,0,0,0,0,0,2.997,2.9965,2.9968,2.9966,2.9947,2.9929,2.9925,2.9929,2.9904,2.9898,2.9899,2.9895,2.9876,2.9875,2.9875,2.9924,2.986,2.9861,2.9861,2.9955,2.9958,2.996,0,0,0,0,0,0,2.997,2.9971,2.9969,2.9964,2.9963,2.9931,2.9936,2.9929,2.9929,2.99,2.9894,2.9905,2.9874,2.9873,2.9895,2.9923,2.9861,2.9862,2.9953,2.9956,2.9959,3.0026,0,0,0,0,0,0,2.997,2.9971,2.9988,2.9965,2.9963,2.999,2.9937,2.993,2.993,2.9924,2.9904,2.9899,2.9873,2.9894,2.9896,2.9923,2.9863,2.995,2.9954,2.9958,3.0021,3.0031,3.0039,0,0,0,0,0,2.997,3.0009,2.999,2.999,2.9984,2.9992,2.9991,2.996,2.9933,2.995,2.9931,2.9899,2.992,2.9897,2.9899,2.9926,2.9948,2.9953,2.9958,3.0017,3.0029,3.0039,0,0,0,0,0,0,3.0037,3.0005,2.9984,3.0016,3.0007,2.9981,3.0001,2.9974,2.9973,2.9967,2.9929,2.9925,2.9952,2.9941,2.9917,2.9968,2.9929,2.9934,2.9974,2.9985,2.9994,2.9995,2.9863,0,0,0,0,0,3.0055,3.0064,3.0036,3.0067,3.0064,3.0034,3.0036,3.0013,3.0003,2.9999,2.9982,2.9973,2.9977,2.998,2.9983,3.002,3.0013,3.0039,3.0048,3.0056,3.006,3.0077,3.0088,2.9975,2.9975,2.9975,0,0,3.0093,3.0077,3.0085,3.008,3.0071,3.0081,3.0031,3.0044,3.0051,3.0001,3.002,3.0007,2.9994,3.0024,3.0036,3.0015,3.009,3.0062,3.0068,3.0068,3.0083,3.0094,3.0103,2.9978,2.9978,2.9977,0,0,3.0167,3.0157,3.018,3.0172,3.0158,3.0137,3.0143,3.0121,3.0111,3.0129,3.0091,3.0099,3.0107,3.0099,3.0096,3.0167,3.0137,3.0169,3.0216,3.0233,3.0242,3.0249,3.0273,3.0282,3.0173,3.0174,3.0174,0,3.0216,3.023,3.0196,3.0211,3.021,3.0164,3.0188,3.0181,3.0169,3.0169,3.0146,3.0155,3.0143,3.0169,3.0186,3.0186,3.019,3.017,3.0243,3.0251,3.0257,3.0279,3.0288,3.0177,3.0177,3.0177,3.0176,0,3.029,3.03,3.0321,3.031,3.0311,3.033,3.0299,3.0304,3.0281,3.0262,3.0281,3.0266,3.0263,3.0268,3.0246,3.029,3.0278,3.025,3.021,3.0272,3.0292,3.0301,3.0183,3.0181,3.018,3.0179,0,0,3.0405,3.0374,3.0383,3.0376,3.0357,3.0364,3.0381,3.0379,3.0383,3.0376,3.0388,3.0396,3.037,3.0367,3.0343,3.0358,3.0413,3.0328,3.0327,3.0343,3.0459,3.0479,3.049,3.0394,3.0395,3.0396,3.046,0,3.0474,3.0501,3.0471,3.0504,3.0512,3.0468,3.0483,3.0472,3.0456,3.046,3.0441,3.0447,3.0412,3.041,3.0423,3.0404,3.0435,3.0399,3.0404,3.0404,3.0407,3.05,3.0522,3.0583,3.0468,3.0469,3.047,0,3.0557,3.0554,3.0587,3.0565,3.0567,3.0581,3.0575,3.058,3.0567,3.0554,3.055,3.0521,3.0535,3.0497,3.0516,3.0491,3.0492,3.0482,3.0484,3.0482,3.044,3.05,3.0602,3.061,3.0482,3.0481,3.048,0,3.0636,3.064,3.066,3.0656,3.0631,3.0641,3.0631,3.0616,3.0616,3.0611,3.061,3.0608,3.0606,3.0604,3.0575,3.0551,3.0597,3.0557,3.0585,3.0586,3.0596,3.0596,3.0698,3.0599,3.0599,3.0599,3.0598,0,3.0715,3.0737,3.0695,3.0707,3.073,3.0695,3.0719,3.0704,3.0691,3.0699,3.0662,3.0671,3.0632,3.0637,3.0614,3.0632,3.0632,3.0621,3.0614,3.0623,3.0625,3.0622,3.0617,3.0601,3.06,3.06,3.0599,0,3.0807,3.0779,3.0798,3.0773,3.0766,3.0785,3.0762,3.0772,3.0753,3.0764,3.0764,3.0734,3.0736,3.0707,3.0705,3.069,3.0718,3.0705,3.0722,3.0717,3.0747,3.0744,3.085,3.0862,3.0757,3.0758,3.0759,0,3.0859,3.0874,3.085,3.0853,3.0844,3.0849,3.0849,3.0815,3.0816,3.0801,3.0813,3.0813,3.0811,3.0817,3.0795,3.0792,3.0778,3.0815,3.0777,3.0785,3.0777,3.0775,3.0776,3.0823,3.0824,3.0825,3.0826,0,3.0953,3.0938,3.0939,3.0934,3.0934,3.093,3.0922,3.0926,3.0889,3.0892,3.0894,3.0893,3.089,3.089,3.0883,3.0872,3.0842,3.0838,3.0844,3.0853,3.0862,3.0856,3.0742,3.0836,3.0835,3.0834,3.0834,3.0833,3.1025,3.1036,3.102,3.1022,3.1013,3.1006,3.1014,3.0995,3.0996,3.0991,3.0971,3.0976,3.0962,3.0949,3.0941,3.0944,3.0926,3.0936,3.0938,3.094,3.0945,3.0863,3.0943,3.0943,3.0943,3.0942,3.0942,0,3.1116,3.1103,3.1105,3.1095,3.1096,3.1069,3.1059,3.1061,3.1067,3.1055,3.1054,3.1056,3.1055,3.1032,3.1029,3.1036,3.1022,3.1036,3.1034,3.1032,3.0962,3.0957,3.1047,3.1047,3.1047,3.1047,3.1047,3.1047,3.1163,3.118,3.1164,3.1176,3.1163,3.1168,3.1164,3.1158,3.1148,3.1152,3.1151,3.1136,3.112,3.1115,3.1112,3.1106,3.1105,3.1123,3.1112,3.1047,3.1037,3.1027,3.1022,3.1124,3.1124,3.1181,3.1182,3.1182]}]]